Theta_e
301 301 300 301 302 307 306 306 306 306 307 307 308 308 310 312 309 313 316 315 315 318 317 326 326 331 341 351 350 350 363 368 368 358 356 353 359 356 355 356 355 353 352 350 348
301 301 301 301 301 307 307 306 306 306 306 306 307 307 313 311 314 318 314 316 317 319 316 322 325 331 338 347 349 352 363 364 355 356 358 355 358 358 359 360 358 354 350 349 348
301 301 302 302 302 306 308 306 307 307 306 306 306 306 313 314 322 324 317 319 318 319 316 324 328 333 339 342 347 350 355 356 357 356 359 360 362 358 359 363 357 355 352 349 349
301 303 305 305 303 304 308 306 307 307 307 306 306 311 312 318 332 323 321 320 319 317 316 323 331 334 341 343 344 348 348 350 357 356 359 363 360 359 358 358 355 351 350 349 349
304 306 307 307 305 303 308 307 308 309 309 307 310 313 316 323 322 321 319 317 317 313 318 321 337 338 341 342 343 345 346 347 349 355 358 359 359 351 355 355 353 350 349 349 348
306 307 307 308 307 303 307 307 308 309 312 312 311 312 316 325 321 322 327 319 321 320 319 321 339 339 339 341 340 340 342 343 351 355 355 358 359 356 355 354 354 351 350 348 347
307 308 308 307 308 304 307 308 308 309 311 311 314 316 325 327 320 322 326 330 323 322 319 327 336 340 337 338 336 335 331 332 341 356 357 359 364 364 358 355 354 352 350 348 347
307 308 308 307 308 306 307 308 308 309 311 314 316 322 329 324 317 320 320 326 329 324 319 326 330 334 333 333 334 332 326 330 332 342 354 358 369 363 357 358 354 353 351 350 348
307 308 308 307 307 306 307 308 310 312 310 315 322 323 331 317 317 318 320 326 329 327 322 320 322 330 332 328 329 331 328 329 331 333 344 354 365 362 354 356 357 353 351 350 349
307 308 307 307 308 305 308 310 312 314 318 323 322 325 325 320 318 317 318 323 327 326 325 323 325 330 331 326 329 331 326 326 328 333 336 357 364 354 349 356 357 355 352 350 350
307 307 307 307 307 304 307 310 319 320 318 326 324 327 319 317 317 317 318 323 327 325 325 327 327 331 330 327 326 328 329 328 327 330 334 354 360 353 347 353 360 356 352 351 351
307 306 306 306 305 306 307 313 314 314 314 316 319 319 316 316 317 321 321 320 328 331 330 330 329 329 330 329 329 327 328 328 328 326 343 360 361 354 348 355 355 352 353 351 351
306 306 306 306 305 309 310 315 315 315 314 315 316 315 314 315 315 321 322 324 327 330 328 324 329 330 330 330 326 325 326 326 327 326 340 355 359 356 352 351 353 355 351 350 350
306 307 306 306 311 313 316 315 315 315 314 318 314 314 315 315 314 318 319 320 324 326 326 326 325 325 328 329 326 322 324 326 325 323 323 338 358 356 351 353 356 356 349 346 349
307 308 306 307 308 313 316 315 315 314 320 316 314 314 315 313 316 316 317 318 321 323 324 325 326 327 327 326 323 323 325 324 325 323 323 323 324 358 351 355 355 352 348 347 346
308 308 306 315 314 317 316 315 316 315 319 315 314 313 313 313 314 317 317 316 317 316 317 319 320 322 324 326 325 324 323 322 322 322 324 321 322 358 356 355 349 348 346 349 347
309 307 305 309 316 315 315 315 317 317 317 315 314 313 313 314 315 315 316 315 314 315 316 317 315 317 320 324 323 323 323 322 323 323 325 323 322 320 355 352 347 347 350 349 347
310 306 307 312 314 316 315 317 324 320 317 316 315 314 314 315 315 316 316 315 316 316 316 316 318 316 318 322 326 324 321 322 326 325 325 323 324 323 341 351 347 347 347 349 351
310 312 313 315 316 316 316 323 320 319 318 318 317 315 314 315 315 315 316 315 317 316 318 317 318 318 318 319 323 325 325 322 322 323 324 325 324 324 324 347 348 345 345 354 352
312 315 318 317 317 316 319 322 318 317 316 317 318 318 318 317 316 315 315 316 318 317 315 316 316 316 317 317 319 321 322 321 321 325 326 326 326 328 329 333 348 345 353 346 347
316 321 317 316 318 319 321 320 318 316 317 317 317 318 318 318 318 318 317 316 316 316 316 315 315 315 316 316 316 318 319 321 321 323 325 325 325 324 327 328 335 348 349 343 345
318 321 317 318 321 322 317 316 312 316 316 316 317 316 317 316 317 317 318 316 315 314 315 314 313 314 315 315 316 315 315 315 322 324 326 328 329 326 324 325 337 346 350 345 348
319 321 318 318 319 319 318 317 314 314 315 315 316 315 315 315 316 316 316 316 315 315 316 313 314 315 316 314 316 316 316 315 314 317 319 323 326 327 330 332 336 340 345 346 344
320 320 318 317 317 317 319 318 316 315 314 315 315 315 315 315 314 315 315 314 314 315 317 314 312 313 314 314 313 316 316 315 314 313 315 318 321 322 330 331 331 332 343 344 345
321 317 316 316 317 315 316 316 315 315 314 315 317 315 315 316 314 315 314 314 315 318 314 312 311 311 311 312 312 313 314 316 316 315 316 317 318 319 331 330 332 337 342 345 347
318 320 316 316 316 315 316 316 315 314 315 314 315 313 314 314 314 314 313 313 314 314 315 314 315 314 316 315 312 312 313 315 316 316 316 316 317 319 320 328 330 332 337 342 344
317 319 320 315 316 315 315 315 314 314 314 313 313 313 314 313 312 311 311 310 310 311 313 313 314 316 316 315 315 315 313 313 314 315 315 315 315 316 318 319 334 341 338 341 341
Wind_Speed
26 28 29 28 28 26 21 18 17 16 15 14 14 15 14 13 9 6 8 9 16 8 10 7 12 17 19 8 14 6 2 5 2 2 4 10 4 11 14 19 16 8 18 30 35
26 27 28 29 29 27 22 18 18 18 18 16 15 15 12 12 9 16 13 9 15 15 8 11 11 14 10 10 14 8 2 3 8 6 7 12 13 9 9 18 17 20 23 32 31
27 27 28 29 29 28 23 19 21 20 18 17 15 12 9 6 6 6 11 18 15 13 14 18 18 14 12 14 15 15 12 8 4 2 15 17 5 20 20 17 23 26 27 25 23
27 28 29 30 28 27 24 20 22 20 18 14 10 7 6 2 2 4 6 19 18 15 13 8 8 15 12 13 15 15 18 13 7 9 7 5 2 12 16 5 15 27 31 24 20
28 29 28 29 29 27 24 21 22 18 15 12 7 5 1 4 8 5 5 12 16 15 17 13 10 13 14 11 14 17 17 15 9 7 7 18 13 14 12 6 19 21 25 21 18
28 30 30 30 28 28 25 20 22 14 10 10 8 4 2 4 7 7 8 12 12 18 15 17 10 11 10 14 14 15 16 14 13 8 11 12 9 6 5 6 19 23 23 18 18
28 29 31 31 29 28 26 19 20 12 10 8 5 4 6 12 2 4 11 12 14 20 10 21 24 15 8 10 13 14 9 14 6 11 9 19 6 4 5 5 17 22 20 19 16
30 30 31 32 29 28 25 20 16 12 9 4 2 4 7 6 9 9 10 19 17 18 21 22 24 16 8 9 13 11 8 6 10 8 10 14 13 16 13 9 16 21 20 20 15
30 31 32 32 30 29 24 20 18 12 9 5 2 5 7 7 5 11 9 11 20 18 20 23 19 10 9 5 6 6 8 8 11 15 7 9 11 15 14 10 14 20 20 18 15
31 31 33 32 30 28 24 22 16 8 5 5 9 6 8 5 5 2 7 11 13 9 10 13 8 8 5 3 7 7 8 8 10 12 14 11 16 17 16 24 12 14 20 20 16
30 31 32 31 27 24 25 9 1 1 5 8 2 6 4 7 4 9 8 7 8 8 9 8 4 7 9 10 11 14 16 15 12 13 8 15 16 17 13 8 10 6 19 20 16
30 30 32 30 24 18 15 3 6 7 7 12 17 14 3 6 5 5 9 6 7 6 7 7 12 9 10 14 13 18 16 15 14 13 6 17 13 13 16 8 7 7 19 23 19
30 31 32 27 18 13 9 14 7 9 4 9 9 7 7 4 7 8 5 9 8 8 9 10 11 17 14 15 15 14 10 11 11 16 12 13 3 5 9 10 10 7 8 13 24
32 32 30 26 8 12 9 5 11 5 3 4 7 1 4 2 5 9 2 4 4 9 11 9 16 16 16 17 13 9 9 11 13 8 3 3 3 6 5 10 10 13 13 7 17
34 32 23 12 15 8 15 13 10 5 2 8 6 2 2 6 4 4 7 5 8 8 5 8 13 12 16 13 14 10 10 9 8 7 4 18 2 4 10 10 16 21 17 9 7
34 28 18 5 9 13 16 14 11 2 3 4 5 6 4 6 8 7 5 4 6 6 9 9 10 6 6 14 10 7 9 10 7 3 6 10 5 5 12 20 9 19 16 16 16
33 18 12 8 5 14 18 8 2 3 10 6 7 5 9 7 5 2 5 6 4 2 4 7 12 8 10 8 8 7 2 3 4 4 7 7 6 8 24 14 22 26 21 19 12
26 11 8 13 8 15 14 3 3 14 13 8 5 4 2 10 3 7 2 4 6 8 1 3 7 6 2 7 5 6 7 5 6 5 5 9 6 8 15 24 25 22 24 10 2
19 7 8 12 11 13 3 2 5 10 13 12 10 3 5 4 3 5 1 6 6 12 5 7 6 18 14 9 8 7 6 6 6 12 5 6 9 10 11 19 24 24 17 15 9
16 6 11 8 2 8 2 8 7 10 8 8 5 7 8 7 2 6 7 10 6 8 7 6 6 7 15 12 9 9 5 4 3 7 7 5 9 6 6 16 25 24 21 18 12
3 3 5 4 5 3 4 5 6 11 9 8 8 8 10 9 10 8 6 9 12 11 5 5 2 10 9 5 12 11 6 3 1 2 5 7 7 10 10 7 8 25 27 29 26
8 1 10 5 2 1 6 6 9 14 12 7 3 7 8 10 8 7 8 7 9 9 5 7 1 5 13 18 18 14 9 5 3 8 3 4 8 16 11 13 23 24 24 24 24
5 1 21 27 6 5 5 12 13 10 13 12 11 11 9 6 5 7 9 8 12 8 3 7 4 4 10 7 4 7 13 10 9 3 11 3 7 9 14 14 15 21 9 7 23
4 3 5 8 8 11 8 11 10 16 12 8 5 7 8 8 7 2 5 4 7 7 7 4 1 4 5 12 11 13 19 19 11 3 5 5 9 17 9 12 15 10 13 13 19
2 5 7 5 6 8 11 10 11 9 9 12 8 15 12 6 8 8 12 13 12 8 5 3 3 6 9 15 17 17 18 19 18 15 5 9 14 12 9 8 10 14 18 26 10
3 3 4 3 7 12 11 6 10 9 8 9 8 11 8 3 8 9 10 7 5 7 3 2 4 7 11 14 16 18 17 17 19 19 16 12 19 7 17 14 10 9 15 11 12
10 9 1 4 9 5 4 5 6 3 4 3 6 5 8 12 11 8 9 11 10 7 5 4 1 4 8 8 13 14 12 14 16 17 16 13 15 13 15 14 13 15 14 11 10
Wind_Direction
357 354 353 352 352 350 347 343 340 337 330 322 316 319 315 313 316 274 239 216 214 190 210 196 205 233 212 226 211 203 238 297 73 169 244 216 262 128 135 142 159 185 151 154 168
353 352 351 350 350 348 345 340 338 331 321 315 311 313 312 317 295 257 228 210 235 224 220 223 197 219 232 223 219 204 210 288 66 209 282 246 232 153 139 161 119 122 134 156 171
350 348 348 348 348 346 342 338 337 331 322 310 302 306 315 339 275 227 201 216 221 205 217 223 204 208 230 229 238 221 236 250 295 21 264 263 323 329 153 135 143 144 150 163 173
348 346 345 345 345 344 340 335 337 333 323 320 309 300 323 9 4 163 169 199 207 212 214 250 270 209 227 228 233 236 242 233 237 227 183 26 69 33 345 125 155 152 157 164 175
347 344 342 342 341 341 337 331 337 335 328 321 321 300 351 224 253 152 157 189 200 195 209 222 247 235 219 230 245 246 248 234 222 157 110 145 122 139 253 254 140 148 154 164 173
344 343 340 339 338 337 334 327 335 330 336 328 321 281 243 254 135 152 167 178 187 188 213 226 243 233 235 243 253 260 258 255 181 167 139 119 115 115 264 256 142 149 162 163 179
343 341 338 337 336 333 329 322 333 322 318 318 322 169 267 252 326 195 186 200 192 197 217 228 246 279 252 277 261 275 303 306 224 164 148 127 114 193 138 245 157 157 159 173 191
342 339 335 334 332 329 322 315 323 314 306 329 4 222 256 216 229 231 224 215 194 201 221 238 248 260 264 278 286 289 298 272 278 205 165 151 120 114 143 164 164 162 163 184 187
340 337 333 331 330 325 316 313 311 294 284 304 281 213 272 206 208 208 241 215 170 202 213 246 265 259 283 282 313 286 261 250 253 261 213 151 128 137 141 151 229 171 170 184 187
338 335 332 329 326 323 314 317 297 288 281 230 266 277 266 239 103 218 236 265 159 163 209 234 249 231 248 216 231 255 259 232 248 254 243 143 134 156 174 173 173 205 173 180 196
337 333 331 328 322 321 323 339 117 161 232 228 226 234 155 108 166 211 179 275 176 179 204 217 242 226 226 240 256 271 281 289 281 250 222 161 146 162 193 159 154 228 177 177 196
336 333 331 326 319 312 309 250 41 303 299 270 257 263 290 344 231 150 158 210 204 196 214 239 227 236 231 240 234 250 264 279 289 284 96 139 156 169 172 150 181 173 188 176 189
337 336 333 325 319 307 255 281 323 302 267 282 219 222 233 204 271 153 191 224 184 217 219 224 235 223 237 248 249 246 241 271 273 303 75 102 75 208 192 97 137 126 295 198 180
339 337 334 330 316 315 297 356 346 349 292 218 171 184 112 247 284 105 36 355 252 231 220 230 239 254 228 236 252 257 264 263 269 303 281 242 308 223 175 154 163 166 233 212 227
338 337 328 330 304 310 360 334 341 289 269 150 110 120 225 198 143 153 74 315 270 281 259 240 228 245 249 236 226 256 280 287 298 289 297 293 76 272 165 217 196 177 223 201 237
336 335 320 19 295 289 326 323 300 262 216 128 127 187 203 219 255 143 179 226 300 300 314 299 308 284 267 256 262 231 257 288 309 358 297 272 160 183 182 211 182 188 208 215 202
333 324 292 280 260 331 331 310 281 254 144 155 166 171 202 174 195 142 217 191 220 192 273 290 267 275 293 317 259 262 228 322 319 283 248 280 295 231 208 197 189 197 221 208 167
330 311 257 257 276 311 317 305 298 25 25 36 46 24 290 133 181 161 325 320 251 243 6 291 312 212 311 242 266 251 188 173 223 240 261 231 250 262 196 192 196 201 210 179 85
335 317 267 265 278 274 314 293 40 13 356 352 322 190 267 175 98 56 43 278 19 46 72 11 300 339 342 328 210 273 278 229 245 277 294 273 285 276 254 176 185 196 200 174 149
334 301 262 343 289 263 260 58 82 47 338 339 336 1 4 30 170 171 196 27 69 66 60 21 321 330 349 332 336 177 257 346 292 249 265 272 289 264 296 191 189 189 177 157 138
328 270 2 355 282 277 36 38 39 55 15 20 3 3 351 2 359 3 39 30 38 33 44 44 89 307 349 331 348 341 329 325 340 263 251 247 270 247 263 14 151 195 176 167 174
337 61 339 314 313 216 72 15 17 9 19 13 342 9 17 8 3 357 3 69 51 36 13 13 358 312 295 301 307 311 314 316 178 279 259 208 273 286 303 328 8 206 194 178 174
318 273 44 26 17 19 72 87 61 20 29 8 12 20 8 354 1 18 7 27 65 52 34 360 338 345 321 311 326 345 335 318 300 278 271 273 288 302 34 27 44 41 2 241 178
300 15 21 27 7 29 358 26 70 44 28 1 359 352 9 3 352 351 331 344 80 98 106 90 255 259 268 296 316 310 318 323 327 301 283 275 312 306 19 10 1 39 22 345 193
231 65 51 20 355 59 48 31 40 20 348 30 38 19 17 360 340 354 2 358 357 58 34 18 242 275 285 286 294 290 295 305 306 307 289 307 301 318 348 28 31 35 47 23 72
53 14 101 48 2 60 15 43 35 15 0 14 11 0 340 328 0 346 349 344 313 348 348 357 291 310 310 311 298 292 290 280 286 296 295 297 291 30 357 339 15 35 45 53 61
359 340 262 56 65 57 48 47 45 60 4 68 27 353 340 10 339 319 311 299 288 282 276 286 276 335 281 346 332 294 279 286 280 283 292 286 296 344 328 333 23 33 41 38 20